START_TIME,STEP,MOV.,M15,t_acc.,M20,t_acc.
1979-07-22 03:00:43.560 ,6,0,0.,24.0,0.,24.0
1979-07-22 03:01:07.560 ,5,1,0.,24.0,0.,24.0
1979-07-22 03:01:31.560 ,5,0,0.,24.0,0.,24.0
1979-07-22 03:01:55.560 ,4,1,0.,24.0,0.,24.0
1979-07-22 03:02:19.560 ,4,0,0.,24.0,0.,24.0
1979-07-22 03:02:43.560 ,3,1,0.,24.0,0.,24.0
1979-07-22 03:03:07.560 ,3,0,0.,24.0,0.,24.0
1979-07-22 03:03:31.560 ,2,1,0.,24.0,0.,24.0
1979-07-22 03:03:55.560 ,2,0,0.,24.0,0.,24.0
1979-07-22 03:04:19.550 ,1,1,0.,24.0,0.,24.0
1979-07-22 03:04:43.560 ,1,0,0.,24.0,0.,24.0
1979-07-22 03:05:07.560 ,0,1,0.,24.0,0.,24.0
1979-07-22 03:05:31.560 ,0,0,0.,24.0,0.,24.0
1979-07-22 03:05:55.560 ,0,1,0.,24.0,0.,24.0
1979-07-22 03:06:19.550 ,0,0,0.,24.0,0.,24.0
1979-07-22 03:06:43.560 ,1,1,0.,24.0,0.,24.0
1979-07-22 03:07:07.550 ,1,0,0.,24.0,0.,24.0
1979-07-22 03:07:31.560 ,2,1,0.,24.0,0.,24.0
1979-07-22 03:07:55.560 ,2,0,0.,24.0,0.,24.0
1979-07-22 03:08:19.550 ,3,1,0.,24.0,0.,24.0
1979-07-22 03:08:43.550 ,3,0,0.,24.0,0.,24.0
1979-07-22 03:09:07.560 ,4,1,0.,24.0,0.,24.0
1979-07-22 03:09:31.560 ,4,0,0.,24.0,0.,24.0
1979-07-22 03:09:55.560 ,5,1,0.,24.0,0.,24.0
1979-07-22 03:10:19.560 ,5,0,0.,24.0,0.,24.0
1979-07-22 03:10:43.560 ,6,1,0.,24.0,0.,24.0
1979-07-22 03:11:07.560 ,6,0,0.,24.0,0.,24.0
1979-07-22 03:11:31.560 ,7,1,0.,24.0,0.,24.0
1979-07-22 03:11:55.560 ,7,0,0.,24.0,0.,24.0
1979-07-22 03:12:19.560 ,7,1,0.,24.0,0.,24.0
1979-07-22 03:12:43.560 ,7,0,0.,24.0,0.,24.0
1979-07-22 03:13:07.560 ,6,1,0.,24.0,0.,24.0
1979-07-22 03:13:31.560 ,6,0,0.,24.0,0.,24.0
1979-07-22 03:13:55.560 ,5,1,0.,24.0,0.,24.0
1979-07-22 03:14:19.560 ,5,0,0.,24.0,0.,24.0
1979-07-22 03:14:43.560 ,4,1,0.,24.0,0.,24.0
1979-07-22 03:15:07.560 ,4,0,0.,24.0,0.,24.0
1979-07-22 03:15:31.560 ,3,1,0.,24.0,0.,24.0
1979-07-22 03:15:55.560 ,3,0,0.,24.0,0.,24.0
1979-07-22 03:16:19.560 ,2,1,0.,24.0,0.,24.0
1979-07-22 03:16:43.560 ,2,0,0.,24.0,0.,24.0
1979-07-22 03:17:07.560 ,1,1,0.,24.0,0.,24.0
1979-07-22 03:17:31.560 ,1,0,0.,24.0,0.,24.0
1979-07-22 03:17:55.560 ,0,1,0.,24.0,0.,24.0
1979-07-22 03:18:19.560 ,0,0,0.,24.0,0.,24.0
1979-07-22 03:18:43.560 ,0,1,0.,24.0,0.,24.0
1979-07-22 03:19:07.560 ,0,0,0.,24.0,0.,24.0
1979-07-22 03:19:31.560 ,1,1,0.,24.0,0.,24.0
1979-07-22 03:19:55.560 ,1,0,0.,24.0,0.,24.0
1979-07-22 03:20:19.560 ,2,1,0.,24.0,0.,24.0
1979-07-22 03:20:43.560 ,2,0,0.,24.0,0.,24.0
1979-07-22 03:21:07.560 ,3,1,0.,24.0,0.,24.0
1979-07-22 03:21:31.560 ,3,0,0.,24.0,0.,24.0
1979-07-22 03:21:55.560 ,4,1,0.,24.0,0.,24.0
1979-07-22 03:22:19.560 ,4,0,0.,24.0,0.,24.0
1979-07-22 03:22:43.550 ,5,1,0.,24.0,0.,24.0
1979-07-22 03:23:07.550 ,0,0,,0,,0
1979-07-22 03:23:31.550 ,6,1,0.,24.0,0.,24.0
1979-07-22 03:23:55.550 ,6,0,0.,24.0,0.,24.0
1979-07-22 03:24:19.550 ,7,1,0.,24.0,0.,24.0
1979-07-22 03:24:43.550 ,7,0,0.,24.0,0.,24.0
1979-07-22 03:25:07.550 ,7,1,0.,24.0,0.,24.0
1979-07-22 03:25:31.550 ,7,0,0.,24.0,0.,24.0
1979-07-22 03:25:55.550 ,6,1,0.,24.0,0.,24.0
1979-07-22 03:26:19.550 ,6,0,0.,24.0,0.,24.0
1979-07-22 03:26:43.550 ,5,1,0.,24.0,0.,24.0
1979-07-22 03:27:07.550 ,5,0,0.,24.0,0.,24.0
1979-07-22 03:27:31.550 ,4,1,0.,24.0,0.,24.0
1979-07-22 03:27:55.550 ,4,0,0.,24.0,0.,24.0
1979-07-22 03:28:19.550 ,3,1,0.,24.0,0.,24.0
1979-07-22 03:28:43.550 ,3,0,0.,24.0,0.,24.0
1979-07-22 03:29:07.550 ,2,1,0.,24.0,0.,24.0
1979-07-22 03:29:31.550 ,2,0,0.,24.0,0.,24.0
1979-07-22 03:29:55.550 ,1,1,0.,24.0,0.,24.0
1979-07-22 03:30:19.550 ,1,0,0.,24.0,0.,24.0
1979-07-22 03:30:43.550 ,0,1,0.,24.0,0.,24.0
1979-07-22 03:31:07.550 ,0,0,0.,24.0,0.,24.0
1979-07-22 03:31:31.550 ,0,1,0.,24.0,0.,24.0
1979-07-22 03:31:55.550 ,0,0,0.,24.0,0.,24.0
1979-07-22 03:32:19.550 ,1,1,0.,24.0,0.,24.0
1979-07-22 03:32:43.550 ,1,0,0.,24.0,0.,24.0
1979-07-22 03:33:07.550 ,2,1,0.,24.0,0.,24.0
1979-07-22 03:33:31.550 ,2,0,0.,24.0,0.,24.0
1979-07-22 03:33:55.550 ,3,1,0.,24.0,0.,24.0
1979-07-22 03:34:19.550 ,3,0,0.,24.0,0.,24.0
1979-07-22 03:34:43.550 ,4,1,0.,24.0,0.,24.0
1979-07-22 03:35:07.550 ,4,0,0.,24.0,0.,24.0
1979-07-22 03:35:31.550 ,5,1,0.,24.0,0.,24.0
1979-07-22 03:35:55.550 ,5,0,0.,24.0,0.,24.0
1979-07-22 03:36:19.550 ,6,1,0.,24.0,0.,24.0
1979-07-22 03:36:43.550 ,6,0,0.,24.0,0.,24.0
1979-07-22 03:37:07.550 ,7,1,0.,24.0,0.,24.0
1979-07-22 03:37:31.550 ,7,0,0.,24.0,0.,24.0
1979-07-22 03:37:55.550 ,7,1,0.,24.0,0.,24.0
1979-07-22 03:38:19.550 ,7,0,0.,24.0,0.,24.0
1979-07-22 03:38:43.550 ,6,1,0.,24.0,0.,24.0
1979-07-22 03:39:07.550 ,6,0,0.,24.0,0.,24.0
1979-07-22 03:39:31.550 ,5,1,0.,24.0,0.,24.0
1979-07-22 03:39:55.550 ,5,0,0.,24.0,0.,24.0
1979-07-22 03:40:19.550 ,4,1,0.,24.0,0.,24.0
1979-07-22 03:40:43.550 ,4,0,0.,24.0,0.,24.0
1979-07-22 03:41:07.550 ,3,1,0.,24.0,0.,24.0
1979-07-22 03:41:31.550 ,3,0,0.,24.0,0.,24.0
1979-07-22 03:41:55.550 ,2,1,0.,24.0,0.,24.0
1979-07-22 03:42:19.550 ,2,0,0.,24.0,0.,24.0
1979-07-22 03:42:43.550 ,1,1,0.,24.0,0.,24.0
1979-07-22 03:43:07.550 ,1,0,0.,24.0,0.,24.0
1979-07-22 03:43:31.550 ,0,1,0.,24.0,0.,24.0
1979-07-22 03:43:55.550 ,0,0,0.,24.0,0.,24.0
1979-07-22 03:44:19.550 ,0,1,0.,24.0,0.,24.0
1979-07-22 03:44:43.550 ,0,0,0.,24.0,0.,24.0
1979-07-22 03:45:07.550 ,1,1,0.,24.0,0.,24.0
1979-07-22 03:45:31.550 ,1,0,0.,24.0,0.,24.0
1979-07-22 03:45:55.550 ,2,1,0.,24.0,0.,24.0
1979-07-22 03:46:19.550 ,2,0,0.,24.0,0.,24.0
1979-07-22 03:46:43.550 ,3,1,0.,24.0,0.,24.0
1979-07-22 03:47:07.550 ,3,0,0.,24.0,0.,24.0
1979-07-22 03:47:31.550 ,4,1,0.,24.0,0.,24.0
1979-07-22 03:47:55.550 ,4,0,0.,24.0,0.,24.0
1979-07-22 03:48:19.550 ,5,1,0.,24.0,0.,24.0
1979-07-22 03:48:43.550 ,5,0,0.,24.0,0.,24.0
1979-07-22 03:49:07.550 ,6,1,0.,24.0,0.,24.0
1979-07-22 03:49:31.550 ,6,0,0.,24.0,0.,24.0
1979-07-22 03:49:55.550 ,7,1,0.,24.0,0.,24.0
1979-07-22 03:50:19.550 ,7,0,0.,24.0,0.,24.0
1979-07-22 03:50:43.550 ,7,1,0.,24.0,0.,24.0
1979-07-22 03:51:07.550 ,7,0,0.,24.0,0.,24.0
1979-07-22 03:51:31.550 ,6,1,0.,24.0,0.,24.0
1979-07-22 03:51:55.550 ,6,0,0.,24.0,0.,24.0
1979-07-22 03:52:19.550 ,5,1,0.,24.0,0.,24.0
1979-07-22 03:52:43.550 ,5,0,0.,24.0,0.,24.0
1979-07-22 03:53:07.550 ,4,1,0.,24.0,0.,24.0
1979-07-22 03:53:31.550 ,4,0,0.,24.0,0.,24.0
1979-07-22 03:53:55.550 ,3,1,0.,24.0,0.,24.0
1979-07-22 03:54:19.550 ,3,0,0.,24.0,0.,24.0
1979-07-22 03:54:43.550 ,2,1,0.,24.0,0.,24.0
1979-07-22 03:55:07.550 ,2,0,0.,24.0,0.,24.0
1979-07-22 03:55:31.550 ,1,1,0.,24.0,0.,24.0
1979-07-22 03:55:55.550 ,1,0,0.,24.0,0.,24.0
1979-07-22 03:56:19.550 ,0,1,0.,24.0,0.,24.0
1979-07-22 03:56:43.550 ,0,0,0.,24.0,0.,24.0
1979-07-22 03:57:07.550 ,0,1,0.,24.0,0.,24.0
1979-07-22 03:57:31.550 ,0,0,0.,24.0,0.,24.0
1979-07-22 03:57:55.550 ,1,1,0.,24.0,0.,24.0
1979-07-22 03:58:19.550 ,1,0,0.,24.0,0.,24.0
1979-07-22 03:58:43.550 ,2,1,0.,24.0,0.,24.0
1979-07-22 03:59:07.550 ,2,0,0.,24.0,0.,24.0
1979-07-22 03:59:31.550 ,3,1,0.,24.0,0.,24.0
1979-07-22 03:59:55.550 ,3,0,0.,24.0,0.,24.0
1979-07-22 04:00:19.550 ,4,1,0.,24.0,0.,24.0
1979-07-22 04:00:43.550 ,4,0,0.,24.0,0.,24.0
1979-07-22 04:01:07.550 ,5,1,0.,24.0,0.,24.0
1979-07-22 04:01:31.550 ,5,0,0.,24.0,0.,24.0
1979-07-22 04:01:55.550 ,6,1,0.,24.0,0.,24.0
1979-07-22 04:02:19.550 ,6,0,0.,24.0,0.,24.0
1979-07-22 04:02:43.550 ,7,1,0.,24.0,0.,24.0
1979-07-22 04:03:07.550 ,7,0,0.,24.0,0.,24.0
1979-07-22 04:03:31.550 ,7,1,0.,24.0,0.,24.0
1979-07-22 04:03:55.550 ,7,0,0.,24.0,0.,24.0
1979-07-22 04:04:19.550 ,6,1,0.,24.0,0.,24.0
1979-07-22 04:04:43.550 ,6,0,0.,24.0,0.,24.0
1979-07-22 04:05:07.550 ,5,1,0.,24.0,0.,24.0
1979-07-22 04:05:31.550 ,5,0,0.,24.0,0.,24.0
1979-07-22 04:05:55.550 ,4,1,0.,24.0,0.,24.0
1979-07-22 04:06:19.550 ,4,0,0.,24.0,0.,24.0
1979-07-22 04:06:43.550 ,3,1,0.,24.0,0.,24.0
1979-07-22 04:07:07.550 ,3,0,0.,24.0,0.,24.0
1979-07-22 04:07:31.550 ,2,1,0.,24.0,0.,24.0
1979-07-22 04:07:55.550 ,2,0,0.,24.0,0.,24.0
1979-07-22 04:08:19.550 ,1,1,0.,24.0,0.,24.0
1979-07-22 04:08:43.550 ,1,0,0.,24.0,0.,24.0
1979-07-22 04:09:07.550 ,0,1,0.,24.0,0.,24.0
1979-07-22 04:09:31.550 ,0,0,0.,24.0,0.,24.0
1979-07-22 04:09:55.550 ,0,1,0.,24.0,0.,24.0
1979-07-22 04:10:19.550 ,0,0,0.,24.0,0.,24.0
1979-07-22 04:10:43.550 ,1,1,0.,24.0,0.,24.0
1979-07-22 04:11:07.550 ,1,0,0.,24.0,0.,24.0
1979-07-22 04:11:31.550 ,2,1,0.,24.0,0.,24.0
1979-07-22 04:11:55.550 ,2,0,0.,24.0,0.,24.0
1979-07-22 04:12:19.550 ,3,1,0.,24.0,0.,24.0
1979-07-22 04:12:43.550 ,3,0,0.,24.0,0.,24.0
1979-07-22 04:13:07.550 ,4,1,0.,24.0,0.,24.0
1979-07-22 04:13:31.550 ,4,0,0.,24.0,0.,24.0
1979-07-22 04:13:55.550 ,5,1,0.,24.0,0.,24.0
1979-07-22 04:14:19.550 ,5,0,0.,24.0,0.,24.0
1979-07-22 04:14:43.550 ,6,1,0.,24.0,0.,24.0
1979-07-22 04:15:07.550 ,6,0,0.,24.0,0.,24.0
1979-07-22 04:15:31.550 ,7,1,0.,24.0,0.,24.0
1979-07-22 04:15:55.550 ,7,0,0.,24.0,0.,24.0
1979-07-22 04:16:19.550 ,7,1,0.,24.0,0.,24.0
1979-07-22 04:16:43.550 ,7,0,0.,24.0,0.,24.0
1979-07-22 04:17:07.550 ,6,1,0.,24.0,0.,24.0
1979-07-22 04:17:31.550 ,6,0,0.,24.0,0.,24.0
1979-07-22 04:17:55.550 ,5,1,0.,24.0,0.,24.0
1979-07-22 04:18:19.550 ,5,0,0.,24.0,0.,24.0
1979-07-22 04:18:43.550 ,4,1,0.,24.0,0.,24.0
1979-07-22 04:19:07.550 ,4,0,0.,24.0,0.,24.0
1979-07-22 04:19:31.550 ,3,1,0.,24.0,0.,24.0
1979-07-22 04:19:55.550 ,3,0,0.,24.0,0.,24.0
1979-07-22 04:20:19.550 ,2,1,0.,24.0,0.,24.0
1979-07-22 04:20:43.550 ,2,0,0.,24.0,0.,24.0
1979-07-22 04:21:07.550 ,1,1,0.,24.0,0.,24.0
1979-07-22 04:21:31.550 ,1,0,0.,24.0,0.,24.0
1979-07-22 04:21:55.550 ,0,1,0.,24.0,0.,24.0
1979-07-22 04:22:19.550 ,0,0,0.,24.0,0.,24.0
1979-07-22 04:22:43.550 ,0,1,0.,24.0,0.,24.0
1979-07-22 04:23:07.550 ,0,0,0.,24.0,0.,24.0
1979-07-22 04:23:31.550 ,1,1,0.,24.0,0.,24.0
1979-07-22 04:23:55.550 ,1,0,0.,24.0,0.,24.0
1979-07-22 04:24:19.550 ,2,1,0.,24.0,0.,24.0
1979-07-22 04:24:43.550 ,2,0,0.,24.0,0.,24.0
1979-07-22 04:25:07.550 ,3,1,0.,24.0,0.,24.0
1979-07-22 04:25:31.550 ,0,0,0.,24.0,0.,24.0
1979-07-22 04:25:55.550 ,4,1,0.,24.0,0.,24.0
1979-07-22 04:26:19.550 ,4,0,0.,24.0,0.,24.0
1979-07-22 04:26:43.550 ,5,1,0.,24.0,0.,24.0
1979-07-22 04:27:07.550 ,5,0,0.,24.0,0.,24.0
1979-07-22 04:27:31.550 ,6,1,0.,24.0,0.,24.0
1979-07-22 04:27:55.550 ,6,0,0.,24.0,0.,24.0
1979-07-22 04:28:19.550 ,7,1,0.,24.0,0.,24.0
1979-07-22 04:28:43.550 ,7,0,0.,24.0,0.,24.0
1979-07-22 04:29:07.550 ,7,1,0.,24.0,0.,24.0
1979-07-22 04:29:31.550 ,7,0,0.,24.0,0.,24.0
1979-07-22 04:29:55.550 ,6,1,0.,24.0,0.,24.0
1979-07-22 04:30:19.550 ,6,0,0.,24.0,0.,24.0
1979-07-22 04:30:43.550 ,5,1,0.,24.0,0.,24.0
1979-07-22 04:31:07.550 ,5,0,0.,24.0,0.,24.0
1979-07-22 04:31:31.550 ,4,1,0.,24.0,0.,24.0
1979-07-22 04:31:55.550 ,4,0,0.,24.0,0.,24.0
1979-07-22 04:32:19.550 ,3,1,0.,24.0,0.,24.0
1979-07-22 04:32:43.550 ,3,0,0.,24.0,0.,24.0
1979-07-22 04:33:07.550 ,2,1,0.,24.0,0.,24.0
1979-07-22 04:33:31.550 ,2,0,0.,24.0,0.,24.0
1979-07-22 04:33:55.550 ,1,1,0.,24.0,0.,24.0
1979-07-22 04:34:19.550 ,1,0,0.,24.0,0.,24.0
1979-07-22 04:34:43.550 ,0,1,0.,24.0,0.,24.0
1979-07-22 04:35:07.550 ,0,0,0.,24.0,0.,24.0
1979-07-22 04:35:31.550 ,0,1,0.,24.0,0.,24.0
1979-07-22 04:35:55.550 ,0,0,0.,24.0,0.,24.0
1979-07-22 04:36:19.550 ,1,1,0.,24.0,0.,24.0
1979-07-22 04:36:43.550 ,1,0,0.,24.0,0.,24.0
1979-07-22 04:37:07.550 ,2,1,0.,24.0,0.,24.0
1979-07-22 04:37:31.550 ,2,0,0.,24.0,0.,24.0
1979-07-22 04:37:55.550 ,3,1,0.,24.0,0.,24.0
1979-07-22 04:38:19.550 ,3,0,0.,24.0,0.,24.0
1979-07-22 04:38:43.550 ,4,1,0.,24.0,0.,24.0
1979-07-22 04:39:07.550 ,4,0,0.,24.0,0.,24.0
1979-07-22 04:39:31.550 ,5,1,0.,24.0,0.,24.0
1979-07-22 04:39:55.550 ,5,0,0.,24.0,0.,24.0
1979-07-22 04:40:19.550 ,6,1,0.,24.0,0.,24.0
1979-07-22 04:40:43.550 ,6,0,0.,24.0,0.,24.0
1979-07-22 04:41:07.550 ,7,1,0.,24.0,0.,24.0
1979-07-22 04:41:31.550 ,7,0,0.,24.0,0.,24.0
1979-07-22 04:41:55.550 ,7,1,0.,24.0,0.,24.0
1979-07-22 04:42:19.550 ,7,0,0.,24.0,0.,24.0
1979-07-22 04:42:43.550 ,6,1,0.,24.0,0.,24.0
1979-07-22 04:43:07.550 ,6,0,0.,24.0,0.,24.0
1979-07-22 04:43:31.550 ,5,1,0.,24.0,0.,24.0
1979-07-22 04:43:55.550 ,5,0,0.,24.0,0.,24.0
1979-07-22 04:44:19.550 ,4,1,0.,24.0,0.,24.0
1979-07-22 04:44:43.550 ,4,0,0.,24.0,0.,24.0
1979-07-22 04:45:07.550 ,3,1,0.,24.0,0.,24.0
1979-07-22 04:45:31.550 ,3,0,0.,24.0,0.,24.0
1979-07-22 04:45:55.550 ,2,1,0.,24.0,0.,24.0
1979-07-22 04:46:19.550 ,2,0,0.,24.0,0.,24.0
1979-07-22 04:46:43.550 ,1,1,0.,24.0,0.,24.0
1979-07-22 04:47:07.550 ,1,0,0.,24.0,0.,24.0
1979-07-22 04:47:31.550 ,0,1,0.,24.0,0.,24.0
1979-07-22 04:47:55.550 ,0,0,0.,24.0,0.,24.0
1979-07-22 04:48:19.550 ,0,1,0.,24.0,0.,24.0
1979-07-22 04:48:43.550 ,0,0,0.,24.0,0.,24.0
1979-07-22 04:49:07.550 ,1,1,0.,24.0,0.,24.0
1979-07-22 04:49:31.550 ,1,0,0.,24.0,0.,24.0
1979-07-22 04:49:55.550 ,2,1,0.,24.0,0.,24.0
1979-07-22 04:50:19.550 ,2,0,0.,24.0,0.,24.0
1979-07-22 04:50:43.550 ,3,1,0.,24.0,0.,24.0
1979-07-22 04:51:07.550 ,3,0,0.,24.0,0.,24.0
1979-07-22 04:51:31.550 ,4,1,0.,24.0,0.,24.0
1979-07-22 04:51:55.550 ,4,0,0.,24.0,0.,24.0
1979-07-22 04:52:19.550 ,5,1,0.,24.0,0.,24.0
1979-07-22 04:52:43.550 ,5,0,0.,24.0,0.,24.0
1979-07-22 04:53:07.550 ,6,1,0.,24.0,0.,24.0
1979-07-22 04:53:31.550 ,6,0,0.,24.0,0.,24.0
1979-07-22 04:53:55.550 ,7,1,0.,24.0,0.,24.0
1979-07-22 04:54:19.550 ,7,0,0.,24.0,0.,24.0
1979-07-22 04:54:43.550 ,7,1,0.,24.0,0.,24.0
1979-07-22 04:55:07.550 ,7,0,0.,24.0,0.,24.0
1979-07-22 04:55:31.550 ,6,1,0.,24.0,0.,24.0
1979-07-22 04:55:55.550 ,6,0,0.,24.0,0.,24.0
1979-07-22 04:56:19.550 ,5,1,0.,24.0,0.,24.0
1979-07-22 04:56:43.550 ,5,0,0.,24.0,0.,24.0
1979-07-22 04:57:07.550 ,4,1,0.,24.0,0.,24.0
1979-07-22 04:57:31.550 ,4,0,0.,24.0,0.,24.0
1979-07-22 04:57:55.550 ,3,1,0.,24.0,0.,24.0
1979-07-22 04:58:19.550 ,3,0,0.,24.0,0.,24.0
1979-07-22 04:58:43.550 ,2,1,0.,24.0,0.,24.0
1979-07-22 04:59:07.550 ,2,0,0.,24.0,0.,24.0
1979-07-22 04:59:31.550 ,1,1,0.,24.0,0.,24.0
1979-07-22 04:59:55.550 ,1,0,0.,24.0,0.,24.0
1979-07-22 05:00:19.550 ,0,1,0.,24.0,0.,24.0
1979-07-22 05:00:43.550 ,0,0,0.,24.0,0.,24.0
1979-07-22 05:01:07.550 ,0,1,0.,24.0,0.,24.0
1979-07-22 05:01:31.550 ,0,0,0.,24.0,0.,24.0
1979-07-22 05:01:55.550 ,1,1,0.,24.0,0.,24.0
1979-07-22 05:02:19.550 ,1,0,0.,24.0,0.,24.0
1979-07-22 05:02:43.550 ,2,1,0.,24.0,0.,24.0
1979-07-22 05:03:07.550 ,2,0,0.,24.0,0.,24.0
1979-07-22 05:03:31.550 ,3,1,0.,24.0,0.,24.0
1979-07-22 05:03:55.550 ,3,0,0.,24.0,0.,24.0
1979-07-22 05:04:19.550 ,4,1,0.,24.0,0.,24.0
1979-07-22 05:04:43.550 ,4,0,0.,24.0,0.,24.0
1979-07-22 05:05:07.550 ,5,1,0.,24.0,0.,24.0
1979-07-22 05:05:31.550 ,5,0,0.,24.0,0.,24.0
1979-07-22 05:05:55.550 ,6,1,0.,24.0,0.,24.0
1979-07-22 05:06:19.550 ,6,0,0.,24.0,0.,24.0
1979-07-22 05:06:43.550 ,7,1,0.,24.0,0.,24.0
1979-07-22 05:07:07.550 ,7,0,0.,24.0,0.,24.0
1979-07-22 05:07:31.550 ,7,1,0.,24.0,0.,24.0
1979-07-22 05:07:55.550 ,7,0,0.,24.0,0.,24.0
1979-07-22 05:08:19.550 ,6,1,0.,24.0,0.,24.0
1979-07-22 05:08:43.550 ,6,0,0.,24.0,0.,24.0
1979-07-22 05:09:07.550 ,5,1,0.,24.0,0.,24.0
1979-07-22 05:09:31.550 ,5,0,0.,24.0,0.,24.0
1979-07-22 05:09:55.550 ,4,1,0.,24.0,0.,24.0
1979-07-22 05:10:19.550 ,4,0,0.,24.0,0.,24.0
1979-07-22 05:10:43.550 ,3,1,0.,24.0,0.,24.0
1979-07-22 05:11:07.550 ,3,0,0.,24.0,0.,24.0
1979-07-22 05:11:31.550 ,2,1,0.,24.0,0.,24.0
1979-07-22 05:11:55.550 ,2,0,0.,24.0,0.,24.0
1979-07-22 05:12:19.550 ,1,1,0.,24.0,0.,24.0
1979-07-22 05:12:43.550 ,1,0,0.,24.0,0.,24.0
1979-07-22 05:13:07.550 ,0,1,0.,24.0,0.,24.0
1979-07-22 05:13:31.550 ,0,0,0.,24.0,0.,24.0
1979-07-22 05:13:55.550 ,0,1,0.,24.0,0.,24.0
1979-07-22 05:14:19.550 ,0,0,0.,24.0,0.,24.0
1979-07-22 05:14:43.550 ,1,1,0.,24.0,0.,24.0
1979-07-22 05:15:07.550 ,1,0,0.,24.0,0.,24.0
1979-07-22 05:15:31.550 ,2,1,0.,24.0,0.,24.0
1979-07-22 05:15:55.550 ,2,0,0.,24.0,0.,24.0
1979-07-22 05:16:19.550 ,3,1,0.,24.0,0.,24.0
1979-07-22 05:16:43.550 ,3,0,0.,24.0,0.,24.0
1979-07-22 05:17:07.550 ,4,1,0.,24.0,0.,24.0
1979-07-22 05:17:31.550 ,4,0,0.,24.0,0.,24.0
1979-07-22 05:17:55.550 ,5,1,0.,24.0,0.,24.0
1979-07-22 05:18:19.550 ,5,0,0.,24.0,0.,24.0
1979-07-22 05:18:43.550 ,6,1,0.,24.0,0.,24.0
1979-07-22 05:19:07.550 ,6,0,0.,24.0,0.,24.0
1979-07-22 05:19:31.550 ,7,1,0.,24.0,0.,24.0
1979-07-22 05:19:55.550 ,7,0,0.,24.0,0.,24.0
1979-07-22 05:20:19.550 ,7,1,0.,24.0,0.,24.0
1979-07-22 05:20:43.550 ,7,0,0.,24.0,0.,24.0
1979-07-22 05:21:07.550 ,6,1,0.,24.0,0.,24.0
1979-07-22 05:21:31.550 ,6,0,0.,24.0,0.,24.0
1979-07-22 05:21:55.550 ,5,1,0.,24.0,0.,24.0
1979-07-22 05:22:19.550 ,5,0,0.,24.0,0.,24.0
1979-07-22 05:22:43.550 ,4,1,0.,24.0,0.,24.0
1979-07-22 05:23:07.550 ,4,0,0.,24.0,0.,24.0
1979-07-22 05:23:31.550 ,3,1,0.,24.0,0.,24.0
1979-07-22 05:23:55.550 ,3,0,0.,24.0,0.,24.0
1979-07-22 05:24:19.550 ,2,1,0.,24.0,0.,24.0
1979-07-22 05:24:43.550 ,2,0,0.,24.0,0.,24.0
1979-07-22 05:25:07.550 ,1,1,0.,24.0,0.,24.0
1979-07-22 05:25:31.550 ,1,0,0.,24.0,0.,24.0
1979-07-22 05:25:55.550 ,0,1,0.,24.0,0.,24.0
1979-07-22 05:26:19.550 ,0,0,0.,24.0,0.,24.0
1979-07-22 05:26:43.550 ,0,1,0.,24.0,0.,24.0
1979-07-22 05:27:07.550 ,0,0,0.,24.0,0.,24.0
1979-07-22 05:27:31.550 ,1,1,0.,24.0,0.,24.0
1979-07-22 05:27:55.550 ,1,0,0.,24.0,0.,24.0
1979-07-22 05:28:19.550 ,2,1,0.,24.0,0.,24.0
1979-07-22 05:28:43.550 ,2,0,0.,24.0,0.,24.0
1979-07-22 05:29:07.550 ,3,1,0.,24.0,0.,24.0
1979-07-22 05:29:31.550 ,3,0,0.,24.0,0.,24.0
1979-07-22 05:29:55.550 ,4,1,0.,24.0,0.,24.0
1979-07-22 05:30:19.550 ,4,0,0.,24.0,0.,24.0
1979-07-22 05:30:43.550 ,5,1,0.,24.0,0.,24.0
1979-07-22 05:31:07.550 ,5,0,0.,24.0,0.,24.0
1979-07-22 05:31:31.550 ,6,1,0.,24.0,0.,24.0
1979-07-22 05:31:55.550 ,6,0,0.,24.0,0.,24.0
1979-07-22 05:32:19.550 ,7,1,0.,24.0,0.,24.0
1979-07-22 05:32:43.550 ,7,0,0.,24.0,0.,24.0
1979-07-22 05:33:07.550 ,7,1,0.,24.0,0.,24.0
1979-07-22 05:33:31.550 ,7,0,0.,24.0,0.,24.0
1979-07-22 05:33:55.550 ,6,1,0.,24.0,0.,24.0
1979-07-22 05:34:19.550 ,6,0,0.,24.0,0.,24.0
1979-07-22 05:34:43.550 ,5,1,0.,24.0,0.,24.0
1979-07-22 05:35:07.550 ,5,0,0.,24.0,0.,24.0
1979-07-22 05:35:31.550 ,4,1,0.,24.0,0.,24.0
1979-07-22 05:35:55.550 ,4,0,0.,24.0,0.,24.0
1979-07-22 05:36:19.550 ,3,1,0.,24.0,0.,24.0
1979-07-22 05:36:43.550 ,3,0,0.,24.0,0.,24.0
1979-07-22 05:37:07.550 ,2,1,0.,24.0,0.,24.0
1979-07-22 05:37:31.550 ,2,0,0.,24.0,0.,24.0
1979-07-22 05:37:55.550 ,1,1,0.,24.0,0.,24.0
1979-07-22 05:38:19.550 ,1,0,0.,24.0,0.,24.0
1979-07-22 05:38:43.550 ,0,1,0.,24.0,0.,24.0
1979-07-22 05:39:07.550 ,0,0,0.,24.0,0.,24.0
1979-07-22 05:39:31.550 ,0,1,0.,24.0,0.,24.0
1979-07-22 05:39:55.550 ,0,0,0.,24.0,0.,24.0
1979-07-22 05:40:19.550 ,1,1,0.,24.0,0.,24.0
1979-07-22 05:40:43.550 ,1,0,0.,24.0,0.,24.0
1979-07-22 05:41:07.550 ,2,1,0.,24.0,0.,24.0
1979-07-22 05:41:31.550 ,2,0,0.,24.0,0.,24.0
1979-07-22 05:41:55.550 ,3,1,0.,24.0,0.,24.0
1979-07-22 05:42:19.550 ,3,0,0.,24.0,0.,24.0
1979-07-22 05:42:43.550 ,4,1,0.,24.0,0.,24.0
1979-07-22 05:43:07.550 ,4,0,0.,24.0,0.,24.0
1979-07-22 05:43:31.550 ,5,1,0.,24.0,0.,24.0
1979-07-22 05:43:55.550 ,5,0,0.,24.0,0.,24.0
1979-07-22 05:44:19.550 ,6,1,0.,24.0,0.,24.0
1979-07-22 05:44:43.550 ,6,0,0.,24.0,0.,24.0
1979-07-22 05:45:07.550 ,7,1,0.,24.0,0.,24.0
1979-07-22 05:45:31.550 ,7,0,0.,24.0,0.,24.0
1979-07-22 05:45:55.550 ,7,1,0.,24.0,0.,24.0
1979-07-22 05:46:19.550 ,7,0,0.,24.0,0.,24.0
1979-07-22 05:46:43.550 ,6,1,0.,24.0,0.,24.0
1979-07-22 05:47:07.550 ,6,0,0.,24.0,0.,24.0
1979-07-22 05:47:31.550 ,5,1,0.,24.0,0.,24.0
1979-07-22 05:47:55.550 ,5,0,0.,24.0,0.,24.0
1979-07-22 05:48:19.550 ,4,1,0.,24.0,0.,24.0
1979-07-22 05:48:43.550 ,4,0,0.,24.0,0.,24.0
1979-07-22 05:49:07.550 ,3,1,0.,24.0,0.,24.0
1979-07-22 05:49:31.550 ,3,0,0.,24.0,0.,24.0
1979-07-22 05:49:55.550 ,2,1,0.,24.0,0.,24.0
1979-07-22 05:50:19.550 ,2,0,0.,24.0,0.,24.0
1979-07-22 05:50:43.550 ,1,1,0.,24.0,0.,24.0
1979-07-22 05:51:07.550 ,1,0,0.,24.0,0.,24.0
1979-07-22 05:51:31.550 ,0,1,0.,24.0,0.,24.0
1979-07-22 05:51:55.550 ,0,0,0.,24.0,0.,24.0
1979-07-22 05:52:19.550 ,0,1,0.,24.0,0.,24.0
1979-07-22 05:52:43.550 ,0,0,0.,24.0,0.,24.0
1979-07-22 05:53:07.550 ,1,1,0.,24.0,0.,24.0
1979-07-22 05:53:31.550 ,1,0,0.,24.0,0.,24.0
1979-07-22 05:53:55.550 ,2,1,0.,24.0,0.,24.0
1979-07-22 05:54:19.550 ,2,0,0.,24.0,0.,24.0
1979-07-22 05:54:43.550 ,3,1,0.,24.0,0.,24.0
1979-07-22 05:55:07.550 ,3,0,0.,24.0,0.,24.0
1979-07-22 05:55:31.550 ,4,1,0.,24.0,0.,24.0
1979-07-22 05:55:55.550 ,4,0,0.,24.0,0.,24.0
1979-07-22 05:56:19.550 ,5,1,0.,24.0,0.,24.0
1979-07-22 05:56:43.550 ,5,0,1.,24.0,0.,24.0
1979-07-22 05:57:07.550 ,6,1,0.,24.0,0.,24.0
1979-07-22 05:57:31.550 ,6,0,0.,24.0,0.,24.0
1979-07-22 05:57:55.550 ,7,1,0.,24.0,0.,24.0
1979-07-22 05:58:19.550 ,7,0,0.,24.0,0.,24.0
1979-07-22 05:58:43.550 ,7,1,0.,24.0,0.,24.0
1979-07-22 05:59:07.550 ,7,0,0.,24.0,0.,24.0
1979-07-22 05:59:31.550 ,6,1,0.,24.0,0.,24.0
1979-07-22 05:59:55.550 ,6,0,0.,24.0,0.,24.0
1979-07-22 06:00:19.550 ,5,1,0.,24.0,0.,24.0
